Regional Weather Roundup
Issued by NWS Charleston, SC

Current Version | Previous Version | Text Only | Print | Product List | Glossary Off
Versions: 1 2 3 4 5 6 7 8 9 10 11 12 13 14 15 16 17 18 19 20 21 22 23 24 25 26 27 28 29 30 31 32 33 34 35 36 37 38 39 40 41 42 43 44 45 46 47 48 49 50

000
ASUS42 KCHS 301126
RWRCHS

REGIONAL WEATHER ROUNDUP
NATIONAL WEATHER SERVICE CHARLESTON SC
600 AM EST FRI JAN 30 2015

NOTE: "FAIR" INDICATES FEW OR NO CLOUDS BELOW 12,000 FEET WITH NO
SIGNIFICANT WEATHER AND/OR OBSTRUCTIONS TO VISIBILITY.

NOT ALL STATIONS ARE QUALITY CONTROLLED BY THE NATIONAL
WEATHER SERVICE. USE DATA WITH CAUTION...ESPECIALLY
DEWPOINT OBSERVATIONS.

SCZ027-030-031-034>040-042>050-301200-
...SOUTHEAST SOUTH CAROLINA...

CITY           SKY/WX    TMP DP  RH WIND       PRES   REMARKS
N CHARLESTON   LGT RAIN  53  44  71 W8        30.02F
WATERFRONT PRK   N/A     54 N/A N/A SW7         N/A
MOUNT PLEASANT PTSUNNY   54  45  71 SW8       30.02S
PINOPOLIS        N/A     54  45  71 SW9       29.92F
MONCKS CORNER  LGT RAIN  52  45  76 W6        30.02R
SUMMERVILLE    CLOUDY    50  45  81 W6        30.04R
BEAUFORT MCAS  CLOUDY    55  44  66 W13       30.05S
BEAUFORT ARPT  CLOUDY    54  45  71 W10       30.04S
HILTON HEAD IS NOT AVBL
WALTERBORO     CLOUDY    54  41  62 W12       30.05R
ALLENDALE      FAIR      54  45  71 VRB6G15   30.05R

...SOUTHERN MIDLANDS AND PEE DEE...

CITY           SKY/WX    TMP DP  RH WIND       PRES   REMARKS
GEORGETOWN     NOT AVBL
KINGSTREE      NOT AVBL
ORANGEBURG     PTCLDY    50  39  66 W9        30.03R
BARNWELL       FAIR      52  43  71 NW6       30.06R
AIKEN          FAIR      46  37  71 W8        30.10R
MANNING        CLOUDY    54  37  54 W5        30.01R
COLUMBIA       PTCLDY    51  37  58 NW9       30.04R
SUMTER         PTCLDY    50  37  60 NW9       30.01R
FLORENCE       MOCLDY    50  38  63 W6        30.00R
MYRTLE BEACH   LGT RAIN  50  41  71 W12       30.01R
N MYRTLE BEACH RAIN      51  43  74 W6        29.99R

$$

GAZ063-065-086>088-099>101-113>116-118-119-134>141-150-301200-
...SOUTHEAST GEORGIA...

CITY           SKY/WX    TMP DP  RH WIND       PRES   REMARKS
SAVANNAH ARPT  CLOUDY    52  42  69 W10       30.07S
HUNTER AAF     MOCLDY    52  43  73 SW8       30.05S
FORT STEWART   PTCLDY    53  46  78 W9        30.07S
STATESBORO     CLOUDY    53  47  82 W9        30.09R
SYLVANIA       CLOUDY    52  48  85 NW10      30.09R
CLAXTON        FAIR      54  50  87 W9        30.10R

...CSRA...CENTRAL AND FAR SOUTHEAST GEORGIA...

CITY           SKY/WX    TMP DP  RH WIND       PRES   REMARKS
THOMSON        CLEAR     48  40  74 NW9       30.16R
AUGUSTA-BUSH   CLEAR     50  38  63 NW16      30.08R
AUGUSTA-DANIEL CLEAR     50  38  63 NW8       30.08R
SWAINSBORO     FAIR      52  37  58 NW8       30.11R
VIDALIA        CLOUDY    54  50  87 W8        30.12R
EASTMAN        FAIR      53  50  89 NW6       30.16R
HAZLEHURST     FAIR      54  51  87 W5        30.12R
ALMA           MOCLDY    52  46  80 W7        30.11S
WAYCROSS       CLOUDY    55  52  90 W7        30.12S
JESUP          CLOUDY    55  50  82 W5        30.11R
BAXLEY         MOCLDY    54  50  87 W3        30.11R
BRUNSWICK      CLOUDY    54  46  76 W8        30.12R
SAINT SIMONS   CLOUDY    51  46  83 SW7       30.10S

$$

SCZ027-028-034-036>038-045-046-048>050-GAZ119-141-301200-
...LAKE AND SUPPLEMENTAL COASTAL OBSERVATIONS...

STATION/POSITION TIME  TEMP    WIND        PRES    WAVE   SWELL
                       AIR SEA DIR/SP/G            HT/PER HT/PER/DIR
                 (UTC) (F)     (DEG/KT/KT) (MB)    (FT/S) (FT/S/D)
UPR LAKE MARION  NOT AVBL
WINYAH BAY       NOT AVBL
LAKE MURRAY      1100   48     340/  2/  6 1017.3R
ACE BASIN NERRS  NOT AVBL
FORT PULASKI     1100   53 52  250/  9/ 12 1018.4S
SAPELO ISLAND    1000   51     230/ 10     1019.0S

$$

ANZ835-935-AMZ111-154-330-350-352-354-370-450-454-472-301200-
...C-MAN AND BUOY OBSERVATIONS...

STATION/POSITION TIME  TEMP    WIND        PRES    WAVE   SWELL
                       AIR SEA DIR/SP/G            HT/PER HT/PER/DIR
                 (UTC) (F)     (DEG/KT/KT) (MB)    (FT/S) (FT/S/D)
BUOY 41004       1050   62 68  240/ 21/ 25 1016.0F   6/ 6   2/ 9
BUOY 41008       1050   53 54  240/ 14/ 17 1018.5F   3/10   2/100/10
FOLLY BEACH CMAN 1100   52     240/  7/  9 1017.1F
CAPERS NEARSHORE 1000   54     250/ 12/ 14   N/A
FRIPP NEARSHORE  1000   53     240/ 14/ 16 1017.0F


STATION/POSITION TIME  TEMP    WIND        PRES    WAVE   SWELL
                       AIR SEA DIR/SP/G            HT/PER HT/PER/DIR
                 (UTC) (F)     (DEG/KT/KT) (MB)    (FT/S) (FT/S/D)
5E ST. MARYS GA  1021      56                N/A     3/12   2/100/12
FRYING PAN BUOY  1050   62 66  240/ 23/ 27 1015.2F   7/ 6   2/110/ 9
BUOY 41025       1050   60 69  260/ 25/ 31 1013.0F   7/ 6   2/ 90/ 9
CAPE LOOKOUT NC  1100   54     260/ 16/ 21 1014.2F
BUOY 41002       1050   65 71  220/ 19/ 25 1017.6F   4/ 9   3/ 50/ 9
BUOY 41010       1020   68 75  250/ 14/ 17 1020.9S
ST AUGUSTINE FL  1100   48     240/  6/  6 1021.5F


$$


USA.gov is the U.S. government's official web portal to all federal, state and local government web resources and services.